COSMOS 1275 DEB, 12726

Orbit data source: Space-Track

COSMOS 1275 DEB, 12726 is space debris in LEO originally from a launch on Thu, 04 Jun 1981 UTC launched from the Plesetsk Missile And Space Complex (PKMTR). Debris objects in space refer to the collection of defunct objects orbiting the Earth. Examples of debris include non-operational satellites, rocket bodies, and fragments generated from explosions, collisions, or faulty payload assembly.

Loading next visibility...
Identifier
12726, 1981-053BT
Orbit
LEO
Country
Flag of CISCIS
Related business
Manufacturer
Unknown
Mission
Spacecraft
Bus & Motor
Unknown
Mass
Unknown
Launch date (UTC)
1981-06-04 (45 years ago)
Launch vehicle
Unknown
Launch site
Plesetsk Missile And Space Complex (PKMTR)
Object type
Payload
Rocket body
Debris
Shape & HBR
Unknown shape, 0.3 m
Radar Cross Section
Medium (>0.1 m² and <1 m²)

Expand to show TLE details & history
Last TLE update: 8 hours ago

TLE from 8 hours ago
0 COSMOS 1275 DEB
1 12726U 81053BT  26095.28005228  .00002158  00000-0  13384-2 0  9991
2 12726  82.9483  17.8885 0040900 333.9330 147.9834 14.04324514264734
Epoch: 2026-04-05T06:43Z
TLE epoch observation values (Epoch: 2026-04-05T06:43:16.516Z)
Latitude
57.25041°
Longitude
-107.54735°
Altitude
913.681 km
Speed
7.388 km/s
True Right ascension
12h 27m 26s
True Declination
57° 05' 50"
Sunlit
Object was in daylight at epoch
Visualization orbit readout
Latitude
Unknown
Longitude
Unknown
Altitude
Unknown
Speed
Unknown
Apparent Right ascension
Unknown
Apparent Declination
Unknown
Sunlit
N/A
Visualization observer readout
Local Sidereal Time
20:18:31
Azimuth
Unknown
Elevation
Unknown
Doppler factor
Unknown
Orbital elements
Apogee altitude
905.636 km
Perigee altitude
846.297 km
Semi-major axis
7,254.104 km
Eccentricity
0.00409
Inclination
82.9483°
RAAN
17.8885°
Arg. of periapsis
333.933°
True anomaly
148.2308°
Mean anomaly
147.9834°
Eccentric anomaly
148.10721°
Mean motion
3.51291 °/min
Orbital period
102.48 mins
BSTAR
0.0013384
Loading maneuver chart data...
Computing Atmospheric mass density...

Documentation

Showing up to 5 results
|